Domov               UVHVVR             MKGP            O straneh              
ZDRAVSTVENO VARSTVO RASTLIN
  MREŽA AGROMET. POSTAJ
 ► PROGNOSTIČNA OBVESTILA
AGROMETEOROLOŠKI PODATKI -
ARSO
OBVLADOVANJE TVEGANJ ZARADI
NEUGODNIH VREMENSKIH RAZMER
  ► NARAVNE NESREČE
  ► SUŠA/MOČA
  ► NAMAKANJE
  ► ŽLED (gozdarstvo)
KARTOGRAFSKI PRIKAZI
SPLETNE POVEZAVE
PROJEKTI IN PUBLIKACIJE

AGROMETEOROLOŠKA MREŽA: VREMENSKE POSTAJE IN FENOLOŠKA OPAZOVANJA

Pregled podatkov za lokacijo Črnomelj, meteorološka postaja 859096

Pregled senzorjev na lokaciji

ID Ime Zadnja
vrednost
Datum
zadnje
spremembe
Tip
senzorja
4082 Omočenost lista (U) 0 U 17.10.2018 05:15 A730WET
4083 Padavine (mm) 0 mm 17.10.2018 05:15 Rain-O-Matic
4081 Relativna vlaga 2 m (% RH) 95,93 % RH 17.10.2018 05:15 50YA
4080 Temperatura 2 m (°C) 10,63 °C 17.10.2018 05:15 50YA

Pregled podatkov zadnjih 24 ur

Zap.
št.
Datum in čas Črnomelj
Omočenost
lista
Padavine Relativna
vlaga
2
m
Temperatura
2
m
1 17.10.2018 05:00
2 17.10.2018 04:30
3 17.10.2018 04:00 0 0 95,7 10,6
4 17.10.2018 03:30 0 0 95,5 10,6
5 17.10.2018 03:00 0 0 95,3 10,7
6 17.10.2018 02:30 0 0 94,9 10,7
7 17.10.2018 02:00 0 0 94,4 10,9
8 17.10.2018 01:30 0 0 93,8 11
9 17.10.2018 01:00 0 0 92,8 11,3
10 17.10.2018 00:30 0 0 90,5 11,8
11 17.10.2018 00:00 0 0 90,6 11,8
12 16.10.2018 23:30 0 0 91,3 11,6
13 16.10.2018 23:00 0 0 90,6 11,6
14 16.10.2018 22:30 0 0 92 11,3
15 16.10.2018 22:00 0 0 89,3 11,6
16 16.10.2018 21:30 0 0 86 12,1
17 16.10.2018 21:00 0 0 91 11,4
18 16.10.2018 20:30 0 0 90,8 11,3
19 16.10.2018 20:00 0 0 90,8 12,1
20 16.10.2018 19:30 0 0 90,8 12,3
21 16.10.2018 19:00 0 0 90,6 12,3
22 16.10.2018 18:30 0 0 89,9 12,6
23 16.10.2018 18:00 0 0 89,1 12,8
24 16.10.2018 17:30 0 0 85,6 13,1
25 16.10.2018 17:00 0 0 82,3 13,6
26 16.10.2018 16:30 0 0 83,4 14,4
27 16.10.2018 16:00 0 0 79,9 14,8
28 16.10.2018 15:30 0 0 75,2 15,1
29 16.10.2018 15:00 0 0 71,4 15,5
30 16.10.2018 14:30 0 0 73,3 15,6
31 16.10.2018 14:00 1 0 74,1 15,2
32 16.10.2018 13:30 0 0 68,6 15,4
33 16.10.2018 13:00 0 0 66 15,2
34 16.10.2018 12:30 0 0 71 15,5
35 16.10.2018 12:00 0 0 73,8 15,3
36 16.10.2018 11:30 0 0 79,6 14,3
37 16.10.2018 11:00 0 0 79,7 14
38 16.10.2018 10:30 0 0 80,7 14
39 16.10.2018 10:00 0 0 79,9 14
40 16.10.2018 09:30 0 0 86,4 12,5
41 16.10.2018 09:00 0 0 87,1 12,2
42 16.10.2018 08:30 0 0 89,2 11,5
43 16.10.2018 08:00 0 0 93,8 10,6
44 16.10.2018 07:30 0 0 95,8 9,7
45 16.10.2018 07:00 0 0 95,8 9,3
46 16.10.2018 06:30 0 0 95,6 9,2
47 16.10.2018 06:00 0 0 94,4 8,9
48 16.10.2018 05:30 0 0 92,1 9,3
© 2011 Ministrstvo za kmetijstvo, gozdarstvo in prehrano. Vse pravice pridržane.